GW4864 Weather Reports


time (UTC)temp
C
wind
direction
speed
KPH
gust
KPH
rain 1hr
cm
rain 24hr
cm
rain mn
cm
humidity
%
barometer
mb
20260505153045 25 38 3.2 14.5 0.00 0.00 0.00 40 1013.7
20260505151544 25 355 4.8 8.0 0.00 0.00 0.00 43 1013.9
20260505124551 16 337 1.6 6.4 0.00 0.00 0.00 61 1014.5
20260505123045 16 331 1.6 6.4 0.00 0.00 0.00 64 1014.6
20260505121548 15 0 1.6 4.8 0.00 0.00 0.00 66 1014.2
20260505120040 14 307 1.6 4.8 0.00 0.00 0.00 69 1014.5
20260505114539 12 0 0.0 1.6 0.00 0.00 0.00 77 1014.3
20260505113044 11 0 0.0 1.6 0.00 0.00 0.00 82 1013.9
20260505111544 10 0 0.0 0.0 0.00 0.00 0.00 83 1013.8
20260505101538 10 0 0.0 1.6 0.00 0.00 0.00 78 1013.3
20260505100045 11 317 0.0 3.2 0.00 0.00 0.00 77 1013.4
20260505094550 11 0 0.0 3.2 0.00 0.00 0.00 74 1013.3
20260505093051 11 0 0.0 4.8 0.00 0.00 0.00 73 1013.2
20260505091543 11 0 0.0 1.6 0.00 0.00 0.00 72 1013.3
20260505090038 11 330 0.0 1.6 0.00 0.00 0.00 72 1013.2
20260505084546 12 0 0.0 4.8 0.00 0.00 0.00 68 1013.1
20260505083100 13 327 0.0 6.4 0.00 0.00 0.00 64 1013.0
20260505081552 13 94 1.6 6.4 0.00 0.00 0.00 65 1012.9
20260505080049 13 117 1.6 4.8 0.00 0.00 0.00 67 1012.8
20260505074546 13 97 1.6 4.8 0.00 0.00 0.00 68 1012.9
20260505073040 12 133 1.6 4.8 0.00 0.00 0.00 73 1012.5
20260505071544 13 0 0.0 3.2 0.00 0.00 0.00 69 1012.4
20260505070100 14 90 0.0 4.8 0.00 0.00 0.00 65 1012.3
20260505064553 14 97 1.6 4.8 0.00 0.00 0.00 67 1012.3
20260505063048 12 106 0.0 3.2 0.00 0.00 0.00 75 1012.4
20260505061603 12 0 0.0 4.8 0.00 0.00 0.00 77 1012.6
20260505060053 11 0 0.0 1.6 0.00 0.00 0.00 78 1012.4
20260505054545 11 0 0.0 0.0 0.00 0.00 0.00 78 1012.4
20260505053045 12 0 0.0 3.2 0.00 0.00 0.00 78 1012.4
20260505051543 12 0 0.0 1.6 0.00 0.00 0.00 77 1012.5
20260505041552 12 0 0.0 0.0 0.00 0.00 0.00 78 1012.2
20260505040058 12 0 0.0 0.0 0.00 0.00 0.00 75 1012.1
20260505034545 12 0 0.0 0.0 0.00 0.00 0.00 75 1012.1
20260505033045 12 0 0.0 0.0 0.00 0.00 0.00 76 1012.1
20260505031550 13 0 0.0 0.0 0.00 0.00 0.00 74 1012.1
20260505030044 13 0 0.0 0.0 0.00 0.00 0.00 74 1012.0
20260505024542 13 0 0.0 0.0 0.00 0.00 0.00 72 1012.2
20260505023040 14 0 0.0 0.0 0.00 0.00 0.00 72 1012.2
20260505021548 14 0 0.0 0.0 0.00 0.00 0.00 71 1012.3
20260505020050 14 0 0.0 1.6 0.00 0.00 0.00 70 1012.2
20260505014548 15 0 0.0 0.0 0.00 0.00 0.00 68 1012.1
20260505013042 15 0 0.0 0.0 0.00 0.00 0.00 67 1012.1
20260505011549 16 0 0.0 1.6 0.00 0.00 0.00 65 1011.9
20260505010058 16 0 0.0 1.6 0.00 0.00 0.00 65 1011.8
20260505004547 16 0 0.0 1.6 0.00 0.00 0.00 65 1011.4
20260505003043 17 0 0.0 1.6 0.00 0.00 0.00 63 1011.3
20260505001542 17 0 0.0 1.6 0.00 0.00 0.00 61 1011.1
20260505000056 18 0 0.0 1.6 0.00 0.00 0.00 61 1011.1
20260504234538 18 0 0.0 4.8 0.00 0.00 0.00 60 1010.9
20260504233041 20 0 0.0 3.2 0.00 0.00 0.00 61 1011.0
20260504231541 20 0 0.0 4.8 0.00 0.00 0.00 56 1011.0
20260504230043 21 0 3.2 9.7 0.00 0.00 0.00 46 1011.4
20260504224541 22 310 3.2 11.3 0.00 0.00 0.00 41 1011.2
20260504223047 22 303 3.2 14.5 0.00 0.00 0.00 40 1010.9
20260504221547 24 17 1.6 12.9 0.00 0.00 0.00 39 1011.0
20260504220053 24 0 4.8 19.3 0.00 0.00 0.00 37 1011.0
20260504214544 25 338 1.6 12.9 0.00 0.00 0.00 36 1011.2
20260504213053 25 345 4.8 17.7 0.00 0.00 0.00 36 1011.1
20260504211542 25 71 3.2 19.3 0.00 0.00 0.00 39 1011.1
20260504210048 25 0 3.2 14.5 0.00 0.00 0.00 37 1011.0
20260504204550 25 145 3.2 9.7 0.00 0.00 0.00 36 1010.9
20260504203048 24 315 3.2 14.5 0.00 0.00 0.00 40 1011.1
20260504201542 23 295 3.2 8.0 0.00 0.00 0.00 37 1011.3
20260504200049 24 340 6.4 20.9 0.00 0.00 0.00 37 1011.7
20260504194544 24 34 4.8 8.0 0.00 0.00 0.00 39 1011.7
20260504193055 24 47 1.6 9.7 0.00 0.00 0.00 36 1011.9
20260504191543 23 310 1.6 14.5 0.00 0.00 0.00 41 1012.3
20260504190049 22 342 3.2 9.7 0.00 0.00 0.00 39 1012.5
20260504184543 23 311 4.8 14.5 0.00 0.00 0.00 37 1012.6
20260504183056 23 360 4.8 16.1 0.00 0.00 0.00 40 1012.9
20260504181543 23 325 3.2 17.7 0.00 0.00 0.00 37 1012.9
20260504180112 22 326 3.2 16.1 0.00 0.00 0.00 38 1013.3
20260504174542 22 350 3.2 17.7 0.00 0.00 0.00 37 1013.4
20260504173046 22 127 4.8 16.1 0.00 0.00 0.00 39 1013.6
20260504171548 22 280 3.2 12.9 0.00 0.00 0.00 40 1013.6